sat.trackr.live / text

‹ back to catalog

STARLINK-31427

NORAD 59241 · 2024-049L

PAYLOAD ACTIVE UNKNOWN

§ Identity

Operator
Country
US
Launch date
2024-03-16
Launch site
AFETR
Launch vehicle
Mass (kg)
RCS (m²)

Purposes: comms

External: N2YO · Heavens-Above · Gunter

§ Orbital elements

Epoch: 2026-05-25T01:42:00.049824Z

Period
94.27 min
Inclination
43.0024°
Eccentricity
0.0001057
Mean motion
15.27583052 rev/d
Perigee alt
482.3 km
Apogee alt
483.8 km
Semi-major
6,861.2 km
B*
5.9520e-5
RAAN
72.4842°
Arg perigee
240.8369°
Mean anomaly
119.2377°
Rev number
12,408

§ Raw data

STARLINK-314271 59241U 24049L   26145.07083391  .00001376  00000+0  59520-4 0  99902 59241  43.0024  72.4842 0001057 240.8369 119.2377 15.27583052124081

JSON: /api/v1/satellites/59241 · /tle

For live sub-satellite position, see the globe view (requires WebGL).

§ Visibility from observer

Set your observer location to see the next 7 days of passes ≥ 10°. The values pass through the URL so the page stays shareable.

No JS? Fill the form by hand. The geolocation button needs JavaScript.